Temperature
20 21 21 21 21 21 20 19 19 19 19 19 18 18 19 19 19 19 19 19 19 20 19 19 19 19 19 19 19 19 18 18 18 18 17 17 17 17 17 17 16 16 16 16
20 21 21 21 21 20 20 20 19 19 19 18 18 18 18 18 18 18 19 19 19 19 19 19 19 19 19 19 19 18 18 18 17 17 17 17 17 17 17 16 16 16 16 16
19 20 21 20 20 20 20 19 19 19 19 18 17 17 18 18 19 19 19 19 19 19 19 19 19 19 19 18 18 18 18 17 17 17 17 17 16 16 16 16 16 16 16 15
16 19 20 19 19 20 19 19 18 18 18 17 17 18 19 19 19 19 19 19 19 19 19 19 19 18 18 18 18 18 18 17 17 17 16 16 16 16 16 16 16 15 15 15
15 17 18 19 19 19 19 18 18 18 17 17 18 18 18 19 19 19 19 19 19 19 19 18 18 18 18 18 18 17 17 17 17 16 16 16 16 15 15 15 15 15 15 15
15 18 18 19 19 19 19 18 18 17 17 17 17 16 17 19 19 19 19 19 18 18 18 18 18 17 17 17 17 17 17 16 16 16 16 15 15 15 15 15 15 14 14 14
15 17 17 17 18 19 19 18 18 18 18 17 17 17 19 19 19 18 18 18 18 18 18 18 17 17 17 17 17 16 16 16 16 16 15 15 15 15 14 14 14 14 14 14
14 16 17 17 17 17 17 18 18 18 18 18 18 18 18 18 18 18 18 18 18 17 17 17 17 17 17 16 16 16 16 16 15 15 15 15 14 14 14 14 14 14 14 13
14 15 15 16 16 17 18 17 18 18 18 18 18 18 18 18 18 18 17 17 17 17 17 17 16 16 16 16 16 16 15 15 15 15 14 14 14 14 13 13 13 13 13 13
13 14 15 16 17 17 17 18 18 18 18 18 18 18 18 18 17 17 17 17 17 16 16 16 16 16 15 15 15 15 15 14 14 14 14 14 13 13 13 13 13 13 13 13
13 14 15 16 17 17 17 17 17 17 18 18 17 17 17 17 17 16 16 16 16 16 16 16 15 15 15 15 14 14 14 14 13 13 13 13 13 13 13 13 13 13 13 12
13 14 14 15 16 17 17 17 17 17 17 17 17 17 17 16 16 16 16 16 15 15 15 15 15 14 14 14 14 14 13 13 13 13 13 13 13 12 12 12 12 12 12 12
16 16 16 16 16 16 16 16 16 16 16 16 16 16 16 16 16 16 15 15 15 15 14 14 14 14 14 13 13 13 13 13 13 12 12 12 12 12 12 12 12 12 12 12
16 16 15 15 15 15 16 15 15 15 15 15 15 15 15 15 15 15 15 15 14 14 14 14 14 13 13 13 13 13 13 12 12 12 12 12 12 12 12 12 11 12 12 11
15 15 15 15 15 15 15 15 15 15 15 15 15 15 15 15 15 14 14 14 14 14 14 13 13 13 13 13 12 12 12 12 12 12 12 12 11 11 11 11 11 11 11 11
15 15 15 15 15 15 15 15 14 14 14 14 14 14 14 14 14 14 14 13 13 13 13 13 13 12 12 12 12 12 12 12 12 11 11 11 11 11 11 11 11 11 11 10
14 14 14 14 14 14 14 14 14 14 14 14 14 14 14 14 13 13 13 13 13 13 13 12 12 12 12 12 11 11 11 11 11 11 11 11 11 11 11 11 10 10 10 10
14 15 15 14 14 14 14 14 14 14 13 13 13 13 13 13 13 13 12 12 12 12 12 12 12 12 11 11 11 11 11 11 11 11 11 11 11 11 10 10 10 10 10 10
14 14 14 14 14 14 14 14 13 13 13 13 13 13 13 13 13 12 12 12 12 12 12 12 12 11 11 11 11 11 11 11 11 11 11 10 10 10 10 10 10 10 10 9
14 14 14 14 14 13 13 13 13 13 13 13 13 13 13 13 12 12 12 12 12 12 12 11 11 11 11 11 10 10 10 10 10 10 10 10 10 10 10 10 10 9 9 9
13 14 13 13 13 13 13 13 13 12 12 12 13 13 12 12 12 12 12 12 12 11 11 11 11 11 11 10 10 10 10 10 10 10 10 10 10 10 9 9 9 9 9 9
13 13 13 13 13 13 13 12 12 12 12 12 12 12 12 12 12 12 11 11 11 11 11 11 10 10 10 10 10 10 10 10 10 10 10 10 9 9 9 9 9 9 9 9
12 12 12 12 12 12 12 12 12 12 12 12 12 12 12 12 11 11 11 11 11 11 10 10 10 10 10 10 10 9 9 9 9 9 9 9 9 9 9 9 8 8 8 8
12 12 12 12 12 12 12 12 12 12 12 12 12 11 11 11 11 11 11 11 11 10 10 10 10 10 10 9 9 9 9 9 9 9 9 8 8 8 8 8 8 8 8 8
11 11 11 11 11 11 11 11 11 12 11 11 11 11 11 11 11 11 11 10 10 10 10 10 10 10 9 9 9 9 9 9 9 8 8 8 8 8 8 8 8 8 8 8
11 11 11 11 11 11 11 11 11 11 11 11 11 11 11 11 11 11 10 10 10 10 10 10 9 9 9 9 9 9 9 9 8 8 8 8 8 8 8 8 8 8 7 7
11 11 11 11 11 11 11 11 10 10 10 11 10 11 11 10 10 10 10 10 10 9 9 9 9 9 9 9 9 9 9 8 8 8 8 8 8 8 8 8 7 7 7 7
Wind_Speed
4 3 3 3 2 3 5 7 8 7 5 6 5 3 2 0 2 3 2 2 2 2 2 1 2 2 3 3 3 4 5 5 5 4 3 3 4 4 3 3 4 4 3 3
1 1 2 1 2 2 3 3 4 3 4 4 2 1 1 1 2 2 1 2 2 2 2 2 3 3 3 3 3 3 4 4 4 3 3 4 4 4 3 3 3 3 3 3
3 3 1 4 5 4 3 2 5 6 5 2 1 2 3 3 4 4 3 2 3 3 3 3 4 4 4 3 3 3 3 3 3 4 4 5 5 4 4 4 3 3 3 3
2 2 5 7 2 3 3 1 2 3 3 3 3 3 3 3 4 4 3 2 2 3 3 4 3 2 2 2 3 3 3 3 3 3 4 4 4 4 4 3 3 4 4 4
4 3 4 5 2 3 4 3 2 3 2 1 0 1 3 2 2 3 3 3 3 3 3 2 2 2 2 2 2 2 2 3 3 3 3 3 4 4 3 3 3 4 4 4
4 4 7 7 3 1 3 4 4 4 4 3 2 0 4 3 3 2 2 1 2 1 0 1 1 2 3 2 2 3 3 3 3 3 3 4 4 4 3 3 4 4 3 3
4 4 6 5 4 2 4 6 3 3 4 4 4 5 4 2 2 2 1 1 2 2 1 2 2 3 3 2 4 3 2 2 3 3 3 4 3 3 2 2 3 3 3 3
4 3 6 3 1 4 5 2 1 2 2 2 3 2 2 1 2 1 1 1 1 1 0 1 1 3 3 3 3 2 2 2 3 3 3 2 1 2 2 2 3 3 3 3
6 6 4 2 3 3 2 2 2 2 2 2 1 2 2 2 1 1 1 1 0 1 0 0 1 2 3 3 2 2 2 3 3 3 2 2 2 3 2 2 3 3 3 3
2 5 4 3 2 2 1 2 1 2 2 2 2 3 2 2 1 1 1 1 1 1 0 1 1 1 2 2 2 2 2 3 2 2 2 2 2 2 3 3 4 4 4 4
3 5 4 3 2 2 2 1 1 2 2 2 2 2 2 2 2 2 1 1 2 1 1 1 1 1 1 1 1 1 2 2 2 2 2 2 2 2 3 4 5 5 5 5
5 6 4 5 4 2 1 2 1 1 3 3 1 2 2 1 1 1 1 1 1 1 1 1 1 2 2 2 1 2 2 2 2 1 2 2 2 2 3 4 4 5 6 6
5 4 4 5 4 2 2 2 1 1 1 2 2 1 1 1 1 1 1 1 1 1 0 0 1 2 3 2 1 2 2 3 2 2 2 3 2 2 3 4 3 3 3 4
3 1 1 3 3 3 1 1 1 2 1 1 1 0 1 1 1 1 1 1 1 1 0 0 1 3 3 2 1 1 2 3 3 3 3 3 3 3 3 3 3 4 3 3
3 2 3 3 2 3 2 2 2 2 2 2 1 0 1 1 1 1 1 0 1 1 0 1 1 4 4 2 1 1 2 2 2 2 3 3 3 3 3 3 3 3 3 3
2 1 0 0 1 2 1 1 1 3 2 2 2 1 2 2 1 1 0 1 1 1 2 1 2 4 3 2 1 2 2 3 3 2 2 2 2 3 3 3 3 3 3 3
2 2 2 1 2 2 2 2 2 2 2 3 3 2 1 2 1 1 1 1 1 2 2 2 3 3 2 2 1 2 2 2 2 2 2 2 2 2 3 2 2 3 3 3
5 5 4 4 3 3 2 3 2 2 3 4 3 1 2 2 2 2 2 1 0 1 3 3 2 2 3 2 2 1 2 2 1 1 1 1 1 1 2 2 3 3 3 3
2 2 2 2 3 2 2 3 3 2 2 1 1 1 1 2 2 2 1 1 1 2 4 3 2 2 2 3 2 1 1 1 1 1 1 1 1 1 2 2 2 3 3 3
1 2 2 2 2 2 2 2 1 1 2 1 1 1 1 2 1 1 2 2 3 3 3 2 2 2 2 3 2 1 1 1 1 1 1 1 1 2 2 2 3 3 3 3
1 1 1 1 2 2 2 1 1 2 2 1 2 2 2 2 1 1 1 1 3 2 1 2 1 2 2 2 1 1 1 1 1 1 1 2 2 2 3 3 3 3 3 3
2 2 2 2 2 2 3 2 2 2 2 1 1 1 1 1 1 1 1 2 3 2 1 1 2 2 2 1 1 1 1 1 2 2 2 2 2 3 3 3 3 3 4 4
2 2 2 2 2 3 3 3 2 2 2 2 2 2 2 3 2 2 3 3 2 2 1 2 2 2 2 1 1 1 1 2 2 2 2 2 3 3 3 3 3 3 3 3
2 2 2 2 1 1 2 4 3 2 3 3 2 3 3 2 2 3 3 3 2 2 2 2 3 2 1 0 0 1 1 2 2 2 3 3 3 3 3 3 3 3 3 3
1 1 1 1 1 2 3 2 2 2 2 2 2 2 2 2 3 2 2 2 3 2 2 3 3 2 1 1 1 1 2 2 2 2 3 3 3 3 3 3 3 3 3 3
1 1 2 2 2 2 2 1 1 2 2 2 2 2 1 1 1 1 1 1 2 2 2 1 2 1 1 2 2 3 3 3 3 3 3 3 4 3 3 3 4 3 3 3
2 1 1 2 2 2 1 1 1 2 2 1 1 1 1 1 0 0 0 0 1 1 1 2 2 1 1 2 2 3 3 3 3 3 3 3 3 3 3 3 2 2 2 2
Wind_Direction
222 226 172 189 221 182 178 186 188 214 215 259 268 266 263 264 97 94 101 119 151 151 142 161 181 185 203 201 192 186 180 185 205 218 211 220 228 227 227 232 237 228 230 237
319 244 175 216 260 192 191 179 186 197 246 251 265 54 75 146 144 150 177 183 177 153 134 185 215 207 202 200 188 177 184 196 204 211 217 228 233 231 227 235 239 234 238 243
223 280 28 266 244 207 197 198 183 211 229 212 161 194 206 195 178 184 202 210 194 173 171 202 219 208 199 198 174 169 186 199 197 201 218 230 235 235 235 240 236 238 245 245
154 127 216 245 248 178 172 227 198 199 213 194 199 232 242 210 192 196 199 208 220 213 201 211 211 203 186 145 159 168 181 198 207 217 226 233 235 240 243 238 236 241 248 250
134 178 257 285 247 169 175 246 212 187 210 236 94 24 309 259 214 216 215 215 223 228 218 204 193 179 147 145 175 181 197 210 219 220 229 237 242 245 245 242 248 246 246 248
132 161 222 239 261 219 130 252 240 192 195 203 124 164 265 274 263 244 226 206 216 211 146 176 211 168 158 176 193 225 230 227 222 216 222 236 244 248 249 242 249 250 255 254
160 202 253 260 295 107 166 240 255 200 202 188 198 218 240 267 266 246 235 235 188 149 180 215 210 178 187 205 224 232 233 231 231 223 222 229 241 258 249 238 245 255 261 267
152 186 246 297 87 167 217 267 242 209 208 216 232 241 245 235 228 207 206 282 165 142 222 274 199 179 199 236 246 217 203 221 233 232 234 238 237 267 258 233 237 251 264 279
190 213 248 269 231 248 199 207 229 223 243 203 240 262 270 256 243 204 186 221 231 155 122 331 206 184 212 248 229 205 205 232 236 241 242 228 221 236 254 251 245 250 249 262
257 270 277 294 299 295 220 215 245 240 241 213 243 251 261 257 254 201 165 170 134 104 74 317 323 277 241 256 223 194 222 246 250 241 251 264 251 238 236 244 250 253 255 260
256 273 305 308 303 300 324 334 351 337 309 251 222 247 238 232 228 209 177 168 134 140 186 286 306 310 299 254 197 213 241 256 258 245 229 241 264 257 247 248 243 240 246 244
228 235 216 256 274 294 299 303 310 347 328 324 271 243 234 233 216 177 157 126 103 114 114 345 336 335 322 295 216 206 235 255 257 256 253 245 257 298 307 272 268 250 239 238
228 239 238 262 286 287 258 277 284 258 246 303 314 219 193 255 243 140 124 125 156 183 180 323 344 331 313 296 255 221 238 253 257 248 249 252 252 249 283 317 322 295 272 262
231 196 279 282 286 305 303 302 328 339 336 326 307 61 114 94 70 121 209 213 203 173 155 323 329 310 307 308 297 265 264 259 252 248 251 254 253 250 246 254 283 304 307 292
269 242 224 259 306 330 343 8 11 337 338 341 349 96 127 155 210 235 252 192 148 125 18 348 317 302 307 313 308 288 274 265 258 257 256 251 249 250 250 251 259 280 300 307
276 344 118 115 293 309 345 357 320 298 304 306 298 258 208 192 189 203 233 162 158 232 263 273 284 294 309 322 321 299 276 269 269 258 264 262 250 243 247 248 254 267 277 283
173 211 216 233 256 273 281 272 250 260 279 277 263 247 189 149 145 169 241 223 205 254 266 265 279 295 310 309 296 281 272 268 279 285 275 259 246 240 237 234 243 261 271 269
209 216 209 202 214 232 263 271 258 250 251 248 249 219 185 177 198 214 233 238 124 316 304 295 295 311 316 312 301 282 263 260 264 269 281 272 249 234 228 236 249 262 278 276
197 205 215 210 208 207 237 260 261 264 262 231 208 221 221 216 211 206 184 169 190 260 286 299 305 320 319 316 323 296 282 277 286 298 288 268 256 255 244 247 256 262 269 277
203 207 217 239 245 234 242 253 261 286 274 221 198 224 247 247 217 205 179 194 226 238 251 274 288 306 308 309 323 294 278 266 268 282 283 265 259 264 259 255 254 256 262 270
291 266 250 249 273 281 261 246 237 264 274 234 209 229 240 245 211 178 168 264 290 275 259 268 275 290 300 305 309 304 294 294 286 278 275 271 272 270 266 260 256 258 261 266
293 271 262 254 263 282 283 270 247 248 266 272 255 225 208 234 232 225 242 238 256 263 253 264 274 289 310 320 334 335 328 324 319 314 299 286 277 276 277 272 267 265 264 264
300 290 280 267 257 269 287 281 261 244 244 243 234 221 223 233 220 206 259 266 250 260 258 269 284 296 321 356 5 345 338 332 323 316 308 299 288 278 274 273 274 275 276 273
309 311 294 277 250 242 275 284 279 265 257 254 243 228 215 228 259 248 243 257 251 257 263 264 269 289 315 346 335 319 312 311 306 299 293 291 292 286 280 279 279 279 280 283
306 311 318 328 289 269 267 281 304 301 287 279 279 269 238 218 229 255 253 244 241 246 260 265 265 271 276 278 265 272 280 287 292 291 290 293 290 286 283 279 277 278 282 284
302 297 286 271 259 264 267 254 261 275 277 284 306 309 307 282 231 228 238 251 249 240 253 276 277 258 249 256 263 270 274 282 286 283 279 280 280 279 280 280 279 279 282 286
3 359 351 342 326 302 283 262 262 276 262 232 258 303 335 355 24 47 61 8 348 320 297 290 282 269 260 262 270 276 278 282 284 283 283 281 278 274 275 276 282 286 290 294
Height
1493 1490 1491 1492 1493 1494 1498 1502 1508 1504 1503 1495 1490 1489 1488 1488 1488 1488 1488 1489 1490 1491 1492 1494 1496 1496 1498 1499 1500 1501 1502 1502 1504 1505 1506 1507 1508 1508 1509 1509 1508 1508 1508 1507
1495 1490 1491 1493 1492 1492 1493 1495 1498 1497 1498 1490 1488 1488 1488 1487 1488 1488 1488 1489 1489 1490 1490 1492 1493 1495 1496 1496 1497 1499 1499 1500 1502 1503 1504 1504 1505 1505 1505 1505 1505 1505 1504 1504
1504 1495 1493 1500 1493 1491 1491 1490 1492 1496 1492 1487 1487 1487 1486 1486 1486 1486 1488 1488 1488 1488 1488 1490 1492 1494 1493 1495 1495 1496 1497 1498 1499 1499 1500 1501 1502 1502 1502 1502 1502 1501 1501 1501
1506 1502 1510 1497 1485 1485 1488 1488 1487 1488 1487 1486 1485 1485 1485 1485 1485 1486 1486 1486 1487 1488 1488 1489 1490 1490 1491 1492 1493 1494 1495 1496 1496 1497 1497 1498 1498 1498 1498 1498 1498 1498 1498 1497
1511 1511 1504 1492 1484 1485 1488 1490 1485 1486 1485 1485 1485 1485 1485 1484 1485 1485 1486 1486 1487 1487 1487 1487 1488 1489 1489 1490 1491 1491 1492 1492 1493 1494 1494 1495 1495 1495 1495 1495 1495 1494 1494 1493
1508 1507 1509 1493 1481 1480 1485 1491 1483 1483 1483 1484 1484 1489 1486 1483 1483 1483 1483 1484 1485 1486 1485 1486 1486 1487 1487 1487 1489 1489 1489 1490 1491 1491 1491 1492 1492 1492 1491 1491 1491 1491 1490 1489
1505 1504 1498 1485 1480 1481 1494 1491 1481 1481 1481 1482 1483 1484 1483 1482 1481 1482 1481 1482 1483 1483 1483 1484 1484 1485 1484 1485 1485 1486 1487 1488 1488 1488 1488 1488 1488 1488 1488 1487 1487 1487 1486 1485
1505 1504 1499 1482 1481 1484 1485 1480 1480 1480 1481 1481 1480 1480 1479 1479 1479 1479 1480 1480 1481 1481 1481 1482 1483 1482 1482 1482 1483 1483 1484 1484 1485 1484 1485 1485 1485 1485 1484 1483 1483 1482 1482 1481
1494 1493 1484 1481 1480 1480 1480 1480 1479 1479 1479 1480 1479 1478 1478 1478 1477 1477 1478 1478 1479 1479 1479 1480 1480 1480 1479 1479 1480 1480 1480 1480 1481 1481 1481 1481 1481 1480 1480 1480 1479 1478 1477 1477
1489 1484 1480 1479 1478 1478 1478 1478 1478 1478 1479 1478 1477 1477 1476 1476 1476 1476 1476 1476 1477 1478 1477 1477 1478 1478 1477 1477 1477 1477 1476 1476 1476 1476 1476 1477 1477 1477 1476 1476 1475 1474 1473 1473
1486 1482 1479 1477 1477 1477 1477 1477 1477 1477 1477 1477 1476 1475 1475 1475 1475 1475 1475 1475 1475 1475 1476 1476 1476 1475 1475 1474 1474 1474 1473 1473 1473 1473 1472 1472 1473 1473 1472 1472 1472 1471 1470 1469
1483 1478 1479 1477 1476 1476 1476 1476 1476 1475 1475 1475 1475 1474 1474 1474 1474 1474 1474 1474 1474 1474 1474 1474 1473 1473 1472 1472 1471 1471 1470 1469 1469 1469 1469 1469 1469 1469 1468 1468 1468 1467 1467 1466
1476 1476 1476 1475 1475 1475 1475 1474 1474 1474 1474 1474 1473 1473 1473 1473 1473 1473 1473 1472 1473 1473 1472 1471 1471 1471 1470 1470 1469 1468 1467 1467 1466 1466 1466 1466 1466 1465 1464 1464 1464 1463 1462 1462
1474 1474 1474 1474 1473 1473 1473 1473 1473 1473 1472 1472 1472 1471 1472 1472 1472 1472 1471 1471 1471 1471 1471 1470 1469 1469 1468 1468 1467 1466 1465 1465 1464 1464 1464 1463 1463 1462 1461 1460 1459 1458 1458 1458
1473 1473 1473 1473 1473 1472 1472 1472 1472 1472 1471 1470 1470 1470 1470 1470 1470 1470 1470 1470 1470 1470 1469 1468 1468 1467 1466 1465 1464 1464 1463 1462 1462 1461 1460 1460 1459 1459 1458 1457 1456 1455 1454 1454
1471 1471 1472 1472 1471 1471 1471 1471 1471 1470 1470 1469 1469 1468 1468 1468 1468 1468 1468 1468 1468 1467 1467 1466 1465 1465 1464 1463 1462 1461 1461 1460 1459 1458 1457 1456 1456 1455 1454 1454 1453 1452 1451 1451
1469 1469 1470 1470 1470 1470 1470 1470 1469 1469 1468 1468 1467 1467 1466 1466 1466 1466 1466 1466 1466 1466 1465 1465 1464 1463 1462 1461 1460 1459 1458 1457 1456 1455 1454 1453 1452 1452 1451 1451 1450 1449 1449 1448
1468 1468 1468 1468 1468 1468 1468 1468 1468 1467 1466 1466 1465 1465 1464 1463 1463 1463 1464 1463 1463 1464 1464 1463 1462 1462 1461 1460 1458 1457 1456 1455 1454 1453 1452 1451 1450 1450 1449 1448 1448 1447 1446 1446
1465 1466 1467 1467 1467 1467 1467 1466 1466 1465 1464 1464 1464 1463 1463 1462 1462 1461 1461 1462 1461 1461 1462 1461 1461 1460 1459 1458 1457 1455 1454 1453 1452 1451 1450 1449 1448 1447 1447 1446 1445 1445 1444 1443
1464 1465 1465 1465 1466 1465 1465 1465 1464 1463 1463 1463 1462 1462 1461 1461 1461 1460 1460 1459 1460 1460 1460 1460 1459 1458 1457 1456 1455 1454 1453 1451 1450 1449 1449 1447 1446 1445 1444 1444 1443 1442 1441 1440
1464 1464 1464 1464 1464 1464 1464 1463 1463 1462 1462 1461 1461 1460 1460 1459 1459 1459 1459 1458 1458 1458 1458 1458 1457 1456 1455 1454 1453 1452 1451 1450 1449 1448 1447 1446 1445 1443 1442 1442 1441 1440 1439 1438
1462 1462 1462 1462 1462 1462 1462 1462 1461 1461 1460 1460 1459 1459 1458 1458 1458 1458 1458 1458 1457 1457 1457 1456 1456 1455 1454 1453 1451 1450 1449 1448 1447 1446 1445 1444 1443 1441 1440 1439 1438 1437 1436 1435
1460 1460 1460 1460 1460 1460 1460 1460 1459 1459 1459 1458 1458 1457 1457 1457 1456 1456 1456 1457 1456 1456 1455 1455 1454 1453 1452 1451 1450 1448 1447 1446 1445 1444 1443 1442 1440 1439 1438 1436 1435 1434 1433 1432
1458 1458 1458 1458 1458 1458 1457 1457 1457 1457 1457 1456 1456 1456 1456 1455 1455 1455 1455 1455 1455 1455 1454 1453 1453 1452 1451 1449 1448 1447 1445 1444 1443 1442 1441 1439 1438 1437 1435 1434 1433 1432 1431 1429
1457 1456 1456 1456 1456 1455 1455 1455 1455 1455 1455 1454 1454 1454 1453 1453 1453 1453 1453 1453 1453 1453 1452 1452 1451 1450 1449 1448 1447 1446 1444 1443 1442 1440 1439 1437 1436 1435 1433 1432 1431 1430 1428 1427
1455 1455 1454 1454 1454 1454 1453 1453 1452 1452 1452 1452 1451 1452 1451 1451 1451 1451 1451 1451 1451 1451 1450 1449 1449 1448 1447 1446 1445 1444 1443 1441 1440 1439 1437 1436 1434 1433 1431 1430 1429 1428 1426 1425
1454 1453 1453 1452 1452 1452 1451 1451 1450 1450 1450 1450 1450 1450 1450 1450 1450 1450 1449 1449 1449 1448 1448 1447 1447 1446 1445 1444 1443 1442 1441 1440 1438 1437 1435 1434 1432 1431 1429 1428 1427 1425 1424 1422